Overview Statistics Trail Chart Weather Telemetry Raw packets
 

This is the latest recevied weather packets stored in our database for station/object KQ7A. If no packets are shown the sender has not sent any weather packets the latest 10 day(s).

<< 98 99 100 101 102 103 104 >>
Time Temp. Humidity Pressure Rain* Wind** Luminosity Snow
1787948417 16.67° C 86% 1024.4 hPa 0 mm - 154 W/m² -
1787948112 16.67° C 86% 1024.4 hPa 0 mm - 200 W/m² -
1787947812 16.67° C 87% 1024.5 hPa 0 mm - 253 W/m² -
1787947510 16.11° C 86% 1024.6 hPa 1.27 mm - 271 W/m² -
1787947213 16.11° C 86% 1024.6 hPa 1.27 mm - 225 W/m² -
1787946904 16.67° C 86% 1024.4 hPa 0 mm - 229 W/m² -
1787946602 16.67° C 85% 1024.6 hPa 0 mm - 170 W/m² -
1787946298 16.67° C 85% 1024.9 hPa 0 mm - 183 W/m² -
1787945992 16.67° C 84% 1024.9 hPa 1.78 mm - 207 W/m² -
1787945686 16.67° C 84% 1024.9 hPa 1.78 mm - 199 W/m² -
1787945381 16.11° C 82% 1024.9 hPa 0 mm - 232 W/m² -
1787945077 16.11° C 82% 1025.2 hPa 0 mm - 192 W/m² -
1787944773 16.11° C 82% 1025.2 hPa 0 mm - 197 W/m² -
1787944469 15.56° C 81% 1025.1 hPa 0 mm - 209 W/m² -
1787944165 15.56° C 86% 1025.3 hPa 0 mm - 256 W/m² -
1787943859 16.11° C 86% 1025.2 hPa 0 mm - 242 W/m² -
1787943554 16.11° C 82% 1025.3 hPa 0 mm - 161 W/m² -
1787943249 15.56° C 80% 1025.3 hPa 0 mm - 139 W/m² -
1787942952 15.56° C 83% 1025.3 hPa 1.27 mm - 134 W/m² -
1787942645 16.11° C 88% 1025.2 hPa 1.27 mm - 142 W/m² -
1787942344 15.56° C 89% 1025 hPa 0 mm - 153 W/m² -
1787942039 15.56° C 89% 1025 hPa 0 mm - 148 W/m² -
1787941735 15.56° C 88% 1025.4 hPa 0 mm - 133 W/m² -
1787941433 15.56° C 86% 1025 hPa 1.78 mm - 133 W/m² -
1787941132 15.56° C 84% 1025 hPa 1.78 mm - 142 W/m² -

* Rain latest hour (hover to see other rain measurements)
** Current wind speed in m/s (hover to see current wind gust speed)